カタログに戻る

STARLINK-33841

運用中通信VLEO
NORAD 63771·PAYLOAD·🇺🇸 United States

打ち上げ Apr 29, 2025 から Cape Canaveral Space Force Station

Loading…

次のパス (今後24時間)

TLE

最新Source: CelesTrak SupGP

元期: Sep 15, 2026, 02:23 UTC

1 63771C 25089W   26258.09979167 -.00021450  00000+0 -77687-3 0  2588
2 63771  43.0025  55.4112 0001444 269.6309 207.9808 15.27591390    13

AllMySatでSTARLINK-33841をリアルタイム追跡

Download on the App Store